Total_Precipitation_Accumulation
1.50 1.48 1.49 1.63 1.60 1.30 1.15 1.06 1.01 1.09 0.92 0.91 0.93 1.04 1.53 1.45 1.01 0.89 0.99 0.87 0.89 1.04 1.41 1.94 1.95 1.75 1.84
2.00 1.86 1.65 1.25 1.08 0.90 0.62 0.53 0.58 0.75 0.60 0.52 0.57 0.69 0.82 1.18 1.30 0.95 0.77 0.88 0.85 0.89 1.04 1.18 1.40 1.41 1.44
1.56 1.24 1.05 0.84 0.70 0.74 0.69 0.51 0.39 0.62 0.63 0.48 0.46 0.44 0.54 0.74 1.12 1.36 1.09 0.71 0.67 0.78 0.77 0.82 0.91 1.04 1.14
1.15 1.20 1.02 0.80 0.83 0.78 0.89 0.87 0.64 0.50 0.55 0.59 0.57 0.49 0.43 0.54 0.74 0.99 1.35 1.08 0.82 0.75 1.05 1.10 0.92 1.02 0.93
1.33 1.11 1.15 1.13 1.10 0.92 0.89 0.90 0.80 0.59 0.44 0.45 0.57 0.63 0.53 0.47 0.48 0.78 1.09 1.47 1.46 1.22 1.04 1.29 1.48 1.25 1.11
1.80 1.13 0.84 0.98 1.11 1.22 1.25 1.26 1.30 1.01 0.90 0.71 0.69 0.78 0.60 0.53 0.59 0.52 0.80 1.22 1.55 1.58 1.30 1.09 1.19 1.41 1.28
1.53 1.08 0.87 0.89 1.40 1.54 1.41 1.36 1.05 0.92 1.22 1.04 0.75 0.72 0.65 0.58 0.74 0.70 0.58 0.85 1.24 1.48 1.57 1.35 1.11 0.97 1.01
0.80 0.67 0.78 0.83 1.40 1.80 1.82 1.63 1.27 1.00 1.11 1.38 0.77 0.57 0.51 0.53 0.67 0.66 0.66 0.65 0.82 1.04 1.30 1.51 1.41 1.25 1.16
0.74 0.80 0.97 1.24 1.60 2.24 2.47 2.45 2.03 1.33 1.14 1.38 0.99 0.78 0.58 0.49 0.60 0.83 0.72 0.62 0.56 0.62 0.83 1.09 1.47 1.54 1.38
0.62 0.73 0.81 0.83 1.18 1.48 1.90 2.73 2.31 2.01 1.29 2.01 1.58 1.51 1.90 0.85 0.67 0.64 0.63 0.72 0.78 0.78 0.85 1.05 1.31 1.64 1.83
0.79 0.67 0.76 0.82 0.81 0.89 1.03 1.78 2.34 1.92 1.08 2.74 2.81 2.03 2.38 1.61 0.99 0.92 1.04 1.25 1.36 1.27 1.26 1.31 1.42 1.75 2.18
0.93 0.84 0.73 0.77 0.73 0.77 0.86 1.15 1.39 1.73 1.26 2.13 3.29 2.16 3.01 2.23 1.27 0.95 1.03 1.17 1.57 1.76 1.68 1.82 1.96 1.84 1.92
0.87 0.74 0.65 0.63 0.82 1.05 0.99 0.81 0.95 1.09 1.30 1.69 2.32 2.23 2.81 2.66 1.71 1.11 1.43 1.23 1.40 1.80 1.76 1.55 1.70 1.92 2.15
0.85 0.73 0.80 0.91 0.84 0.93 1.25 1.15 1.39 1.11 1.08 1.38 1.66 2.15 2.54 1.90 1.97 1.65 1.44 1.90 1.42 1.44 1.51 1.54 1.58 1.70 1.88
1.38 1.26 1.13 1.05 1.08 0.95 1.19 1.44 1.68 1.21 1.14 1.30 1.37 1.45 1.75 1.84 2.16 1.47 1.47 1.61 1.60 1.81 1.79 1.54 1.58 1.89 1.70
1.45 1.57 1.57 1.39 1.37 1.32 1.31 1.43 1.49 1.21 1.19 1.14 1.45 1.66 1.60 1.37 1.49 1.37 1.38 1.44 1.63 1.92 1.97 2.29 1.79 1.68 1.56
1.87 1.62 1.61 1.50 1.70 1.50 1.38 1.48 1.24 1.05 1.01 1.09 1.39 2.00 2.38 1.44 0.78 1.03 1.66 1.53 1.54 1.76 1.93 2.03 1.87 1.64 1.52